Location: Brantley
(31.5822°N, 86.2569°W)
Time: 20:09:16
(UTC+00:00)

Injun/Solrad 3 - Pass Details

Date: 24 February 2026
Orbit: 872 x 984 km, 66.8° (Epoch: 8 March)

Event Time Altitude Azimuth Distance (km) Brightness Sun altitude
Rises 15:26:30 0° 218° (SW) 3,444 10.9 35.3°
Reaches altitude 10° 15:29:02 10° 223° (SW) 2,510 10.3 35.7°
Maximum altitude 15:34:39 51° 298° (WNW) 1,089 8.4 36.6°
Drops below altitude 10° 15:40:23 10° 14° (NNE) 2,555 10.0 37.5°
Sets 15:42:59 0° 20° (NNE) 3,512 10.7 37.9°
